Location: La Tine
(46.4708°N, 7.0525°E)
Time: 17:24:55
(UTC+00:00)

Cosmos 1867 - Pass Details

Date: 18 September 2020
Orbit: 777 x 799 km, 65.0° (Epoch: 28 October)

Event Time Altitude Azimuth Distance (km) Brightness Sun altitude
Rises 18:25:43 0° 325° (NW) 3,313 7.6 -9.2°
Reaches altitude 10° 18:28:11 10° 329° (NNW) 2,380 6.7 -9.6°
Maximum altitude 18:33:37 61° 50° (NE) 907 3.7 -10.5°
Enters shadow 18:38:36 12° 129° (SE) 2,217 5.3 -11.4°
